Погода Ванжиль-Кынак

Погода Ванжиль-Кынак : погода сейчас, прогноз погоды и архив. Всё, что Вы хотите узнать о погоде Ванжиль-Кынак!

Хотите узнать прогноз погоды Ванжиль-Кынак? Тогда Вам сюда: Погода Ванжиль-Кынак

Поиск расширенной информации на нашем сайте:

Другие новости

Новости СМИ2

Главная страница сайта

Новости сайта

02.10.2013

Напоминаем, что на нашем новом сайте вы можете получить высокодетализированные прогнозы погоды по пунктам России, СНГ и мира (включающие важные для авиации метеовеличины, такие как направление и скорость ветра, видимость, явления погоды, количество и форма облачности, нижняя и верхняя граница облачности), а также ознакомиться с разнообразными материалами по авиационной метеорологии и подборкой полезных ссылок на эту тему.

Сайт Метеоцентр.Азия посвящён разработке технологий оптимизации авиаметеорологического обслуживания, включая проектирование и перспективное создание нескольких автоматизированных авиаметеорологических систем:
- система выпуска высокодетальных прогностических карт явлений погоды для нижнего воздушного пространства по России и ближнему зарубежью;
- система верификации прогнозов TAF (выпускаемых синоптиками официальных АМСГ РФ и ближнего зарубежья) и AUTOTAF (выпускаемых сайтом Метеоцентр.Азия) - выявление ошибок, онлайн-сопоставление с фактической погодой METAR, автоматическое внесение коррективов в прогнозы при резком отклонении фактической погоды от прогноза, подсчёт оправдываемости прогнозов по элементам и в целом;
- система обработки, анализа и отображения авиаметеорологической информации для применения провайдерами метеорологической информации.


Погода Ванжиль-Кынак - сегодня

Время (UTC), дата Ветер
(°,м/с) 
Видим.   Явления Облачность Т
(°С)
Тd
(°С)
f(%) Тe
(°С)
Pmin
(гПа)
dP
(гПа)
Po
(мм)
O2
(г/м3)
Тmin Tmax R s Состояние
почвы
09 16.01.17 140 (ЮВ) 10 км  в посл. час снег  10/0 средняя 
[As trans]
-25.7 -28.1 80 -29  1038.7  -0.5  768  344           
12 16.01.17 140 (ЮВ) 20000 м  {снег}  ясно 
-28.1 -30.5 80 -29  1039.2  0.2  769  347    -25.3  0.9     
15 16.01.17 130 (ЮВ) 20000 м    10/0 средняя, верхняя 
[Ac trans|Ci fib]
-26.9 -29.3 80 -28  1038.7  -0.4  768  345           
18 16.01.17 130 (ЮВ) 4000 м  слаб. снег  10/0 средняя 
[As op]
-26.2 -28.7 79 -27  1038.2  -0.5  768  344           
21 16.01.17 150 (ЮВ) 4000 м  слаб. снег  10/0 средняя 
[As op]
-25.2 -27.7 80 -26  1037.7  -0.3  768  343           
00 17.01.17 140 (ЮВ) 4000 м  слаб. снег  10/0 средняя 
[As op]
-24.2 -26.7 80 -27  1037.1  -0.6  767  341  -28.7    0.8  72  равномерный
сухой снег
100% 
03 17.01.17 150 (ЮВ) 4000 м  слаб. снег  10/10 600 м 
[Ns]
-23 -25.6 79 -23  1036.4  -0.6  767  339           
06 17.01.17 150 (ЮВ) 4000 м  слаб. снег  10/10 300 м 
[Frnb|Ns]
-21.4 -23.9 80 -24  1035.2  -1  766  337           
09 17.01.17 160 (Ю) 4000 м  слаб. снег  10/10 600 м 
[Ns]
-19.4 -22 80 -22  1034.3  -0.8  765  334           
12 17.01.17 200 (Ю) 20000 м  {снег}  10/10 600 м 
[Sc]
-17.3 -19.2 85 -20  1031.9  -2.3  764  330    -17.3     
15 17.01.17 190 (Ю) 20000 м  в посл. час ливневой снег  10/10 300 м кучево-дожд. 
[Cb cap]
-17 -18.9 85 -19  1029.9  -2  762  329           
18 17.01.17 200 (Ю) 20000 м  {ливн. осадки}  10/10 300 м кучево-дожд. 
[Cb cap]
-16 -17.9 85 -16  1028.1  -1.7  761  327           
21 17.01.17 260 (З) 4000 м  слаб. ливневой снег  10/10 300 м кучево-дожд. 
[Cb cap]
-16.4 -17.3 93 -17  1027.4  -0.7  760  327           
00 18.01.17 230 (ЮЗ) 4000 м  слаб. ливневой снег  10/10 300 м кучево-дожд. 
[Cb cap]
-15.4 -17.3 85 -15  1027.3  -0.1  760  326  -17.3    74  равномерный
сухой снег
100% 
03 18.01.17 240 (ЮЗ) 10 км  {ливн. осадки}  10/10 300 м кучево-дожд. 
[Cb cap]
-15.4 -17.3 85 -15  1027.3  760  326           
06 18.01.17 250 (З) 4000 м  слаб. ливневой снег  10/10 300 м кучево-дожд. 
[Cb cap]
-15 -17 85 -17  1027.5  0.2  761  326           
09 18.01.17 250 (З) 10 км  {ливн. осадки}  8/3 300 м кучево-дожд., средняя, верхняя 
[Cb cap|Ac trans|Ci fib]
-14 -16 85 -14  1027.5  0.2  761  324           
12 18.01.17 тихо ()   20000 м  {ливн. осадки}  10/10 600 м 
[Sc]
-17 -18.2 90 -17  1028.5  0.7  761  329    -14  0.6     
15 18.01.17 тихо ()   4000 м  слаб. ливневой снег  9/9 300 м кучево-дожд. 
[Cb cap]
-14.8 -16.1 90 -15  1028.5  0.1  761  326           
18 18.01.17 тихо ()   4000 м  слаб. ливневой снег  10/10 300 м кучево-дожд. 
[Cb cap]
-15.6 -16.9 90 -16  1028.9  0.4  762  327           
21 18.01.17 тихо ()   4000 м  слаб. ливневой снег  9/9 300 м кучево-дожд. 
[Cb cap]
-16.2 -18.1 85 -16  1029.4  0.4  762  328           
06 19.01.17 тихо ()   10 км  в посл. час ливневой снег  10/9 300 м кучево-дожд., верхняя 
[Cb cap|Ci fib]
-16.2 -17.5 90 -16  1031.8  0.6  764  329           
09 19.01.17 190 (Ю) 10 км    10/10 300 м 
[St]
-15.2 -16.5 90 -15  1032.1  0.3  764  327           
12 19.01.17 тихо ()   20000 м    10/10 600 м 
[Sc]
-17.3 -19.2 85 -17  1032.4  0.2  764  330    -15.2  0.3     
15 19.01.17 тихо ()   20000 м  в посл. час ливневой снег  10/4 300 м кучево-дожд., верхняя 
[Cb cap|Ci sp]
-16.7 -18.7 84 -17  1031.6  -0.8  764  329           
Время (UTC), дата Ветер
(°,м/с) 
Видим.   Явления Облачность Т
(°С)
Тd
(°С)
f(%) Тe
(°С)
Pmin
(гПа)
dP
(гПа)
Po
(мм)
O2
(г/м3)
Тmin Tmax R s Состояние
почвы

Для получения пояснительной информации подведите курсор к названию столбца.

ПОГОДА Ванжиль-Кынак - архив

Всё, что Вы хотите узнать о погоде Ванжиль-Кынак - удобно и подробно!

Выберите нужную дату (начиная с 1 января 2015* года) и нажмите кнопку "Найти".
Будут отображены архивные сводки погоды по пункту Ванжиль-Кынак, начиная с указанной даты.


Отображать данные в формате CSV (для использования в таблицах Excel)


Внимание! Наш архив погоды предназначен исключительно для личного некоммерческого использования в познавательных целях. Если Вам необходимы официальные справки о состоянии погоды (для производственных, юридических, коммерческих и т.п. целей), обращайтесь в органы Росгидромета.

*Примечание: данная дата относится к архиву по метеостанциям СССР (Россия, СНГ, Балтия).
Архив по метеостанциям Зарубежной Европы и Азии (кроме Китая) хранится 10 дней, по другим регионам земного шара (Китай, Африка, Америка, Австралия, Океания) - 1 день.

Ванжиль-Кынак - район местоположения метеостанции


Название, широта, долгота, высота метеостанции:
Ванжиль-Кынак 60.3°ш. 84.1°д. 99 м над ур. моря [Российская Федерация]

Дополнительная информация

В oтличие oт бoльшинства пoгoдных сайтoв мы публикуем пoдрoбную метеoинфoрмацию в детальнoм прoфессиoнальнoм фoрмате.

Характеристики температуры и влажнoсти вoздуха измеряются на высoте 2 м в тени вдали oт зданий и деревьев.
Скoрoсть ветра измеряется на высoте 10 м (на урoвне рoста челoвека скoрoсть ветра ниже в 1.5-2 раза). Если метеoстанция нахoдится в гoрoде или в лесу, тo скoрoсть ветра занижена на 2-4 м/с пo сравнению с oткрытым местoм. Скoрoсть ветра над акватoриями крупных рек и oзёр, а также на вершинах хoлмoв на 2-5 м/с выше, чем в oбычных услoвиях.
Атмoсфернoе давление в разных тoчках местнoсти мoжет значительнo oтличаться oт давления на метеoстанции, в зависимoсти oт услoвий рельефа (при пoдъёме на 10 м давление пoнижается примернo на 1 мм рт.ст.).